Location: Eindhoven
(51.4416°N, 5.4697°E)
Time: 23:06:05
(UTC+01:00)

Tiros 1 - Pass Details

Date: 21 November 2019
Orbit: 630 x 664 km, 48.4° (Epoch: 04 December)

Event Time Altitude Azimuth Distance (km) Brightness Sun altitude
Rises 17:09:19 0° 267° (W) 2,918 12.0 -4.5°
Reaches altitude 10° 17:11:39 10° 263° (W) 2,011 11.1 -4.9°
Maximum altitude 17:16:12 59° 185° (S) 731 7.6 -5.5°
Drops below altitude 10° 17:20:47 10° 106° (ESE) 2,022 9.3 -6.2°
Enters shadow 17:22:43 - 103° (ESE) 2,776 9.9 -6.4°
